This demonstration page uses our WeatherBlox Daily Observations layout. Learn more.

36.17497, -115.13722

Hourly Observations for August 9, 2020

Temp ( °F °C ) Dew Point ( °F °C ) Humidity (%) Winds ( mph kmh ) Pressure ( in mb ) Visibility ( mi km ) Precip ( " mm )
12:53 am 00:53 Clear 84 28.9 31 -0.6 15 15 WNW 6 9 29.85 1011 10 16.0934 0 0
1:53 am 01:53 Clear 81 27.2 27 -2.8 14 14 NW 5 7 29.86 1011 10 16.0934 0 0
2:53 am 02:53 Clear 80 26.7 28 -2.2 15 15 Calm 29.86 1011 10 16.0934 0 0
3:53 am 03:53 Clear 78 25.6 31 -0.6 18 18 WNW 6 9 29.86 1011 10 16.0934 0 0
4:53 am 04:53 Clear 77 25 30 -1.1 18 18 NW 5 7 29.87 1012 10 16.0934 0 0
5:53 am 05:53 Clear 78 25.6 32 0 19 19 WNW 5 7 29.89 1012 10 16.0934 0 0
6:53 am 06:53 Sunny 78 25.6 32 0 19 19 NW 8 13 29.91 1013 10 16.0934 0 0
7:53 am 07:53 Sunny 84 28.9 29 -1.7 13 13 Calm 29.93 1014 10 16.0934 0 0
8:53 am 08:53 Sunny 90 32.2 29 -1.7 11 11 Calm 29.93 1014 10 16.0934 0 0
9:53 am 09:53 Sunny 93 33.9 26 -3.3 9 9 ESE 6 9 29.93 1014 10 16.0934 0 0
10:53 am 10:53 Sunny 96 35.6 24 -4.4 7 7 NE 5 7 29.93 1014 10 16.0934 0 0
11:53 am 11:53 Sunny 98 36.7 27 -2.8 8 8 Calm 29.92 1013 10 16.0934 0 0
12:53 pm 12:53 Sunny 101 38.3 28 -2.2 8 8 SE 7 11 29.9 1013 10 16.0934 0 0
1:53 pm 13:53 Sunny 101 38.3 25 -3.9 7 7 W 5 7 29.88 1012 10 16.0934 0 0
2:53 pm 14:53 Sunny 103 39.4 23 -5 6 6 VRB 6 9 29.85 1011 10 16.0934 0 0
3:53 pm 15:53 Sunny 104 40 21 -6.1 5 5 VRB 5 7 29.82 1010 10 16.0934 0 0
4:53 pm 16:53 Sunny 105 40.6 20 -6.7 5 5 S 8 13 29.82 1010 10 16.0934 0 0
5:53 pm 17:53 Sunny 105 40.6 19 -7.2 4 4 SSE 10 17 29.8 1009 10 16.0934 0 0
6:53 pm 18:53 Sunny 103 39.4 20 -6.7 5 5 E 8 13 29.8 1009 10 16.0934 0 0
7:53 pm 19:53 Clear 99 37.2 22 -5.6 6 6 ESE 7 11 29.8 1009 10 16.0934 0 0
8:53 pm 20:53 Clear 96 35.6 25 -3.9 8 8 SE 7 11 29.83 1010 10 16.0934 0 0
9:53 pm 21:53 Clear 95 35 25 -3.9 8 8 Calm 29.83 1010 10 16.0934 0 0
10:53 pm 22:53 Clear 92 33.3 29 -1.7 10 10 Calm 29.83 1010 10 16.0934 0 0
11:53 pm 23:53 Clear 87 30.6 32 0 14 14 NW 3 6 29.83 1010 10 16.0934 0 0

Powered by AerisWeather